Preview of NWS' New Version of Forecast
This preview is not operational and should not be used for support decisions.

Terminal Aerodrome Forecast (TAF)

Issued by National Weather Service (NWS)

                            
000
FTUS42 KKEY 241506 AAA
TAFEYW
TAF AMD
KEYW 241506Z 2415/2512 17005KT P6SM FEW020
     FM241700 VRB04KT P6SM SCT020
     FM250600 13004KT P6SM FEW020 SCT200=